Погода в Шуме

Россия / Санкт-Петербург и Ленинградская область     59°52′31″N   31°46′51″E
темп.,
°C
ветер,
м/с
пор.,
м/с
влажн.,
%
обл.,
%
осадки,
мм/ч
давл.,
гПа
погр.,
м
5 августа, чт
чт500:00+10юз227317 0.0 101638
03:00+10юз228044 0.0 101734
06:00+10зюз128111 0.0 101740
09:00+16юз1160100 0.0 1017372
12:00+20ссз1144100 0.0 10171725
15:00+19ссв334583 0.0 10161231
18:00+19ссв344839 0.0 1016551
21:00+14юв127293 0.0 101644
6 августа, пт
пт600:00+13ююз2378100 0.0 1017113
03:00+11юз119130 0.0 101726
06:00+12ссв128679 0.0 101657
09:00+16всв356146 0.0 1016402
12:00+20всв574565 0.0 10162156
15:00+18всв59505 0.0 10161492
18:00+18всв51153100 0.0 10151670
21:00+13всв51174100 0.0 1015836
7 августа, сб
сб700:00+13всв4108099 0.0 1014677
03:00+12всв41188100 0.0 1013499
06:00+13всв51284100 0.0 1013508
09:00+16в6127797 0.0 1012703
12:00+14в51395100 0.6 1011643
15:00+15в51294100 0.8 1011843
18:00+15в51298100 2.4 1010653
21:00+15в41198100 7.3 1009517
8 августа, вс
вс800:00+15в41099100 2.0 1009540
03:00+15вюв3899100 2.4 1009322
06:00+15вюв2599100 0.3 1009214
09:00+16в2499100 1.5 1009199
12:00+16юв1299100 4.3 1009191
15:00+16с0198100 7.1 1011130
18:00+17ссз129786 0.1 1011154
21:00+15ссз1298100 0.1 101382
9 августа, пн
пн900:00+15ссз139889 0.0 1013106
03:00+15с1397100 0.0 1014131
06:00+14с1197100 0.0 101455
09:00+17ссв118782 0.0 1015456
12:00+19всв227676 0.0 1015646
15:00+22всв1260100 0.0 1015955
18:00+22всв346622 0.0 1014819
21:00+17всв31090100 0.0 1013286